Home   Weather   San Angelo   Past weeks

Flag for USA Past Weather in San Angelo, Texas, USA — Yesterday and Last 2 Weeks

Now
94 °F

Scattered clouds.


Feels Like: 95 °F
Forecast: 71 / 96 °F
Wind: 8 mph from South

Location: Mathis Field

Current Time: Aug 20, 2017 at 2:29:02 pm

Latest Report: Aug 20, 2017 at 1:51 pm


Visibility: 10 mi

Pressure: 29.93 "Hg (28.12 "Hg at 561m altitude)

Humidity: 35%

Dew Point: 62 °F

Location of San AngeloLocation

Past Weather in San Angelo — Graph

°F

San Angelo Temperature Yesterday

Maximum temperature yesterday: 99 °F (at 1:51 pm)
Minimum temperature yesterday: 73 °F (at 3:51 am)
Average temperature yesterday: 86 °F

High & Low Weather Summary for the Past Weeks

 TemperatureHumidityPressure
High102 °F (Aug 6, 3:51 pm)94% (Aug 8, 3:00 am)30.12 "Hg (Aug 8, 3:00 am)
Low68 °F (Aug 9, 6:51 am)28% (Aug 5, 3:51 pm)29.70 "Hg (Aug 14, 5:51 pm)
Average82 °F63%29.91 "Hg
* Reported Aug 5 12:51 pm — Aug 20 12:51 pm, San Angelo. Weather by CustomWeather, © 2017

Note: Actual official high and low records may vary slightly from our data, if they occured in-between our weather recording intervals... More about our weather records

Advertising

San Angelo Weather History for the Previous 24 Hours

Scroll right to see more
 ConditionsComfort  
Time TempWeatherWind HumidityBarometerVisibility
12:51 pm
Sun, Aug 20
93 °FSunny.9 mph37%29.94 "Hg10 mi
11:51 am91 °FSunny.10 mph42%29.95 "Hg10 mi
10:51 am88 °FSunny.14 mph46%29.96 "Hg10 mi
9:51 am84 °FSunny.8 mph57%29.96 "Hg10 mi
8:51 am79 °FSunny.8 mph67%29.96 "Hg10 mi
7:51 am76 °FSunny.8 mph72%29.94 "Hg10 mi
6:51 am75 °FClear.9 mph71%29.93 "Hg10 mi
5:51 am77 °FClear.10 mph64%29.91 "Hg10 mi
4:51 am77 °FClear.10 mph62%29.91 "Hg10 mi
3:51 am77 °FClear.5 mph58%29.90 "Hg10 mi
2:51 am78 °FClear.5 mph54%29.91 "Hg10 mi
1:51 am79 °FClear.6 mph52%29.92 "Hg10 mi
12:51 am83 °FClear.9 mph44%29.92 "Hg10 mi
11:51 pm
Sat, Aug 19
84 °FClear.8 mph41%29.92 "Hg10 mi
10:51 pm83 °FPassing clouds.3 mph57%29.91 "Hg10 mi
9:51 pm85 °FPassing clouds.8 mph46%29.89 "Hg10 mi
8:51 pm87 °FPassing clouds.3 mph43%29.86 "Hg10 mi
7:51 pm94 °FSunny.9 mph31%29.84 "Hg10 mi
6:51 pm94 °FSunny.7 mph31%29.84 "Hg10 mi
5:51 pm97 °FScattered clouds.12 mph29%29.84 "Hg10 mi
4:51 pm97 °FSunny.6 mph33%29.86 "Hg10 mi
3:51 pm98 °FSunny.8 mph33%29.89 "Hg10 mi
3:38 pm95 °FThundershowers. Sunny.9 mph35%29.98 "Hg10 mi
2:51 pm92 °FThundershowers. Broken clouds.14 mph40%29.93 "Hg10 mi
2:25 pm92 °FThunderstorms. Partly sunny.21 mph38%30.01 "Hg10 mi
2:18 pm92 °FThundershowers. Partly sunny.15 mph38%30.01 "Hg10 mi
Weather by CustomWeather, © 2017

See weather overviewHow to use our weather pages